Tracking 25934 objects as of 11-Aug-2022
HD Live streaming from Space Station
objects crossing your sky now

KSM1-C

Track KSM1-C now!
10-day predictions


NORAD ID: 46906
Int'l Code: 2020-081B
Perigee: 569.0 km
Apogee: 574.4 km
Inclination: 36.9 °
Period: 96.0 minutes
Semi major axis: 6942 km
RCS: Unknown
Launch date: November 7, 2020
Source: Luxembourg (LUXE)
Launch site: SRIHARIKOTA (SRI)
aabbcc
Your satellite tracking list
Your tracking list is empty




NASA's NSSDC Master Catalog

Two Line Element Set (TLE):
1 46906U 20081B   22222.51953791  .00001287  00000-0  10565-3 0  9994
2 46906  36.8945 263.5098 0003870 116.6739 243.4398 15.00751858 96217
Source of the keplerian elements: AFSPC